SCP
2 1 1 1 1 1 1 1 1 1 1 1 1 1 1 1 1 1 2 2 2 3 4 4 3 3 4 4 3 2 1 1 1 1 1 1 1 1 1 1 1 1 1
2 2 2 1 1 1 1 1 1 1 1 1 1 1 1 1 1 1 1 2 2 3 3 3 3 3 4 4 3 2 2 1 1 1 1 1 1 1 1 1 1 1 1
2 2 2 1 1 1 1 1 1 1 1 1 1 1 1 1 1 1 1 1 2 2 2 2 2 3 3 3 3 2 2 2 2 2 2 2 2 2 1 1 1 1 1
2 2 2 1 1 1 1 1 1 1 1 1 1 1 1 1 1 1 1 1 2 2 2 2 2 2 3 3 3 3 3 3 3 3 3 2 2 2 2 2 1 1 1
1 1 1 1 1 1 1 1 1 1 1 1 1 1 1 1 1 1 1 1 2 2 2 1 2 2 3 3 4 4 4 4 4 4 3 3 3 3 2 2 1 1 1
1 1 1 1 1 1 1 1 1 1 1 1 1 0 0 1 1 1 2 2 2 2 2 2 2 2 3 3 4 5 5 5 5 4 4 4 4 3 3 2 2 2 2
1 1 1 1 1 0 0 1 0 0 0 0 0 0 0 1 1 2 2 2 2 2 2 2 2 2 2 3 3 4 4 5 5 5 5 5 5 4 3 3 3 2 2
1 1 1 1 0 0 0 1 0 0 0 0 0 0 0 1 1 1 2 2 2 2 2 2 2 2 2 2 2 3 3 4 5 5 5 6 5 5 4 4 3 3 3
1 1 1 1 1 1 1 1 1 1 1 1 1 1 1 1 1 1 1 1 2 2 2 2 2 2 2 2 2 2 2 3 5 6 6 6 6 6 6 5 4 4 4
1 1 1 1 1 1 1 1 1 1 1 1 1 1 1 1 1 1 1 1 1 1 2 2 2 2 2 2 1 1 2 2 3 5 6 7 8 8 7 6 5 4 4
1 1 1 1 1 1 1 1 1 1 1 1 1 1 1 2 2 2 1 1 1 1 1 1 2 2 2 2 1 1 1 1 2 3 5 6 7 8 8 7 6 5 5
1 1 1 1 1 1 2 2 2 1 1 1 2 2 3 3 3 3 2 2 1 1 1 1 1 1 2 2 2 2 2 1 1 1 2 3 5 6 7 8 7 7 6
1 1 1 1 1 1 2 2 2 2 2 2 3 3 4 4 4 4 3 3 2 1 1 1 1 1 1 2 2 2 2 2 1 1 1 1 2 3 5 6 7 7 7
1 1 1 1 1 1 2 3 3 3 3 3 3 4 5 5 5 5 4 3 2 1 1 1 1 1 1 2 2 2 2 2 2 1 1 1 1 1 2 4 5 6 6
1 1 1 1 1 2 2 3 3 4 4 4 4 4 5 5 5 5 4 3 2 1 1 1 1 1 1 1 1 2 2 2 2 2 2 1 1 1 1 2 3 3 3
1 1 1 1 2 2 2 3 4 4 5 5 5 5 5 6 5 4 3 2 2 2 2 2 1 1 1 1 1 2 2 2 2 2 2 1 1 1 1 1 1 1 1
2 2 2 2 2 2 3 4 4 5 5 5 5 5 5 5 5 3 3 2 2 2 2 2 2 2 2 2 2 2 2 2 2 2 2 1 1 1 1 1 1 0 0
3 3 3 3 3 3 4 4 4 4 4 5 4 4 4 4 3 2 2 2 2 2 2 2 2 2 2 2 2 3 3 3 2 2 1 1 1 1 0 0 0 0 0
5 5 4 4 4 4 4 4 4 3 3 3 3 3 2 2 2 2 2 2 2 2 2 2 2 2 2 2 2 2 2 2 2 2 2 1 1 1 0 0 0 0 0
5 5 5 5 4 4 4 4 3 3 2 2 2 2 2 2 2 2 2 2 2 2 2 2 2 2 2 2 2 2 2 2 2 2 2 2 1 1 0 0 0 0 0
4 4 5 5 4 4 4 3 3 3 3 2 2 2 2 2 2 3 3 2 2 2 2 2 2 2 2 2 2 2 2 2 2 2 2 2 1 1 1 1 1 0 0
3 3 4 4 3 3 3 3 3 4 3 2 2 1 1 2 2 3 2 2 1 2 2 3 2 2 2 2 2 2 2 2 2 3 2 2 1 1 1 1 1 1 0
4 4 4 4 3 3 2 2 2 2 2 2 1 1 1 2 2 2 2 2 1 1 2 2 2 2 2 2 2 2 2 2 2 2 2 1 1 1 1 1 1 1 0
4 4 4 5 4 4 2 1 1 1 1 1 1 1 1 1 2 2 2 2 2 2 1 1 1 1 2 1 1 1 1 1 1 1 1 1 1 1 0 0 0 0 0
5 5 5 6 6 6 4 2 1 1 1 2 2 2 1 1 1 1 1 2 2 2 2 1 1 1 1 1 1 1 1 1 1 1 1 1 1 1 0 0 0 0 0
4 5 5 7 7 7 6 3 1 1 1 2 2 2 1 1 1 1 1 2 2 2 2 1 1 0 0 0 1 1 1 1 1 1 1 1 1 1 1 1 1 0 0
Wind_Speed
3 2 2 2 2 2 2 2 2 2 2 3 3 4 4 4 4 4 3 9 10 11 11 11 11 11 11 11 11 11 11 11 10 10 10 10 10 10 10 10 9 9 9
3 3 2 2 2 2 2 2 3 2 2 2 3 3 3 3 4 4 4 6 10 11 11 11 11 11 11 11 11 11 11 11 11 10 10 11 10 10 10 10 10 10 9
3 3 2 2 2 2 2 1 2 1 2 2 3 3 3 3 4 4 4 3 5 9 11 11 11 11 12 12 12 12 11 11 11 11 11 11 11 10 10 10 11 11 10
4 3 2 2 2 1 1 1 1 1 1 1 2 2 2 2 3 3 3 3 3 4 7 11 11 11 12 13 13 12 12 12 12 12 12 11 11 11 11 11 12 11 11
3 3 2 2 2 1 1 1 1 1 1 2 2 2 2 2 2 2 3 4 4 4 4 7 11 11 12 13 13 13 13 12 12 12 12 12 12 12 12 12 12 11 11
3 3 2 2 2 1 0 1 1 1 1 2 2 2 2 2 2 2 4 3 3 4 4 4 4 6 10 11 12 13 13 12 12 12 12 12 12 12 12 12 12 12 12
3 3 2 2 1 1 1 1 1 0 1 1 1 2 3 2 2 2 3 2 3 3 3 4 3 3 4 8 10 11 12 13 12 12 12 12 12 11 11 12 12 13 12
3 3 3 2 1 1 1 0 1 1 1 0 1 1 2 4 3 2 2 2 3 2 3 4 4 4 4 3 5 9 11 12 12 12 11 11 12 12 12 13 13 13 13
3 3 3 2 2 2 1 1 1 2 1 1 1 2 1 2 3 3 2 1 2 2 3 3 4 5 5 4 4 7 10 10 11 11 11 10 10 10 11 13 13 13 13
2 3 3 3 2 2 1 2 2 2 2 1 1 1 2 3 1 3 3 2 2 3 3 3 3 4 4 3 4 6 8 9 10 10 10 10 10 9 10 11 13 13 13
2 2 3 2 2 2 2 2 1 1 2 2 1 1 1 1 1 2 3 3 3 3 3 3 3 3 3 3 3 5 6 7 8 9 9 9 9 10 10 11 12 13 13
1 1 2 2 2 2 3 3 2 2 2 2 2 2 1 1 1 2 2 3 3 4 3 2 2 2 2 2 4 6 6 6 6 7 8 9 9 9 9 10 11 12 12
1 2 2 2 2 3 3 2 2 2 2 2 2 2 2 2 2 2 2 2 3 3 2 2 2 2 2 2 3 5 5 5 6 7 8 8 9 9 9 9 10 10 10
3 2 2 2 2 2 3 2 2 3 2 2 3 2 2 2 2 2 2 1 2 3 2 3 2 2 2 2 4 4 3 6 6 7 7 8 8 9 9 8 9 9 9
2 2 2 2 2 2 2 2 2 3 2 2 3 3 3 2 2 2 2 3 2 2 4 3 2 3 2 2 4 3 3 5 6 7 7 8 8 7 7 7 8 8 8
2 2 2 1 1 1 2 2 2 2 2 3 2 3 3 2 2 2 2 2 3 3 4 4 3 3 3 3 4 3 4 6 7 8 8 8 7 6 6 6 7 7 7
2 2 2 2 2 1 1 1 2 2 2 3 3 3 4 3 2 2 2 2 2 3 4 5 3 3 3 4 3 3 3 3 4 7 8 8 8 8 7 8 7 7 7
3 3 2 2 2 2 1 1 2 2 3 3 4 3 4 3 2 2 2 3 3 3 3 5 4 2 3 4 3 3 3 3 3 6 8 9 9 9 9 8 7 7 7
3 3 3 3 3 2 2 2 2 3 3 4 4 4 4 2 2 2 2 2 3 3 2 3 4 2 2 2 2 3 4 3 4 5 6 7 9 9 8 8 8 8 8
3 3 3 3 3 3 2 2 2 2 3 3 4 3 3 3 3 3 2 3 2 2 2 2 3 2 2 2 1 2 3 3 3 3 4 4 6 8 8 8 8 8 8
3 3 3 3 3 2 2 3 3 3 3 3 3 2 3 3 3 3 2 2 2 2 2 2 2 2 2 2 2 2 3 3 4 3 2 3 3 3 4 7 8 9 9
3 2 3 3 3 3 4 4 3 2 2 2 3 3 4 3 4 4 4 3 3 2 3 2 2 3 4 3 2 2 2 3 4 2 2 3 2 4 4 4 7 9 9
2 3 3 3 3 4 5 4 3 2 2 2 3 4 4 4 3 2 3 4 4 5 6 4 4 5 5 4 3 3 3 4 5 3 1 4 2 4 4 5 8 9 10
3 3 3 3 3 4 5 4 4 3 2 3 3 4 4 4 3 2 3 3 3 4 5 4 5 6 5 5 4 4 5 4 4 3 2 3 3 4 4 4 7 9 9
2 3 2 3 3 4 4 4 3 2 2 4 4 4 4 4 5 4 2 3 4 5 5 5 6 7 8 8 5 2 2 1 3 4 2 2 3 3 3 4 5 8 9
3 2 2 2 3 3 4 4 4 2 2 3 3 4 5 5 6 5 3 3 4 5 4 4 4 5 4 5 5 4 3 2 2 4 3 2 2 1 3 3 3 3 4
Wind_Direction
169 173 186 194 203 208 211 217 217 224 241 257 254 241 229 221 216 206 208 201 200 202 205 209 213 215 215 214 217 219 220 222 223 221 221 220 218 220 217 215 217 216 215
171 174 180 190 209 215 217 218 219 222 233 242 257 256 240 219 214 211 214 209 209 209 212 217 219 221 221 218 219 222 222 223 224 223 223 222 222 221 220 219 219 219 218
170 169 171 186 205 206 212 218 235 234 243 247 257 264 255 230 219 216 213 207 211 215 217 220 221 226 228 227 226 225 224 223 223 224 223 224 224 223 223 224 224 224 221
165 161 163 195 207 190 189 201 214 232 266 265 271 278 285 262 226 218 210 209 211 219 223 224 225 229 232 232 232 229 226 224 224 227 227 226 227 227 227 227 227 225 221
163 158 167 183 188 179 200 226 201 187 250 281 272 270 277 263 246 229 222 221 216 218 220 227 232 236 237 237 234 231 230 227 226 229 231 230 231 231 230 228 226 225 220
163 153 153 159 149 145 229 228 215 225 231 255 276 292 281 257 251 236 238 231 218 222 223 227 231 241 241 241 238 236 235 231 229 231 233 232 233 233 231 226 227 224 222
164 156 160 155 150 155 204 214 185 233 289 330 5 329 319 297 258 239 236 234 228 228 221 223 225 229 240 240 239 238 240 238 235 235 236 235 236 233 230 228 228 228 226
164 163 162 167 168 163 187 185 139 126 282 96 132 32 341 335 326 283 258 236 241 239 230 225 218 227 235 236 238 237 240 240 239 238 238 238 238 235 231 231 227 228 227
177 168 170 168 173 170 187 204 171 155 216 284 151 147 156 264 303 311 297 284 268 250 245 238 228 231 228 227 237 238 237 240 241 241 238 235 238 240 236 235 230 230 229
191 179 173 174 182 182 194 223 182 175 169 245 297 215 201 195 204 304 316 310 297 275 263 252 244 238 229 227 232 235 238 238 241 243 240 237 236 237 239 239 237 235 234
205 190 183 182 188 195 203 215 200 184 181 195 219 251 272 249 185 192 283 306 310 285 270 258 253 249 241 234 241 246 245 243 242 242 241 239 240 240 239 241 242 241 239
237 216 189 190 203 204 205 211 211 210 209 212 220 208 206 220 228 204 240 272 284 285 282 271 269 256 245 239 255 263 249 243 249 249 246 242 243 244 244 244 244 246 243
228 237 220 207 214 214 208 205 215 223 211 209 222 225 218 221 211 201 215 259 280 290 303 296 269 260 258 243 250 254 247 244 247 248 249 248 249 247 246 246 246 246 243
213 216 217 222 225 219 216 205 221 227 218 222 240 237 238 245 220 204 200 214 294 304 302 283 292 265 262 252 246 249 252 246 248 251 248 247 248 247 246 246 246 244 243
209 201 208 227 236 224 219 207 217 229 227 230 244 248 248 252 238 228 205 183 189 268 285 274 281 274 259 251 243 241 248 246 244 246 244 241 241 244 245 245 244 244 244
213 197 209 224 235 229 228 218 226 232 231 249 246 253 264 261 254 242 227 212 191 199 253 265 260 270 271 265 251 237 245 252 247 245 243 239 233 235 241 244 243 242 242
196 197 206 210 231 237 236 231 244 235 236 254 263 256 262 260 258 253 233 222 219 201 246 274 266 277 275 271 275 259 255 247 252 247 245 238 231 230 235 236 236 235 237
207 205 200 204 223 229 229 224 250 253 239 250 261 261 265 267 264 255 244 242 240 223 224 266 280 279 268 263 267 264 267 259 252 257 252 241 234 232 234 236 234 234 238
211 213 205 209 223 230 232 239 239 248 250 250 252 251 257 257 267 267 266 258 253 257 234 246 271 271 273 279 292 286 277 274 265 260 251 240 237 237 236 234 232 236 239
218 223 221 222 225 232 231 237 250 255 262 265 260 247 243 236 243 248 255 255 257 260 260 258 270 279 281 283 284 286 295 283 274 270 260 254 247 244 240 237 237 237 238
229 227 229 239 242 238 238 238 242 252 257 272 280 267 257 252 252 249 259 251 253 255 265 270 274 287 287 298 276 263 278 286 280 254 259 262 253 255 250 243 240 238 239
238 231 235 243 251 256 254 242 233 250 262 275 284 279 272 267 277 271 271 257 234 234 241 244 263 268 270 264 265 265 274 292 288 264 235 264 234 247 248 238 237 235 234
234 241 247 241 246 259 253 247 242 231 250 265 277 275 281 292 277 264 271 275 268 255 231 217 233 250 254 252 250 266 259 255 259 262 253 273 256 255 253 251 237 232 233
231 238 248 251 250 263 256 247 245 237 246 256 259 256 258 274 287 283 281 291 285 276 254 232 227 241 248 247 232 236 243 262 275 267 215 255 266 260 264 253 243 235 235
237 242 245 249 249 267 263 249 236 236 251 259 258 256 250 256 271 267 262 274 289 291 281 265 258 258 259 258 248 251 263 271 282 278 234 224 260 271 271 262 251 237 236
238 247 259 253 241 256 263 249 232 213 244 265 273 275 266 264 273 255 234 238 266 279 292 302 296 292 278 269 255 221 218 231 262 274 256 219 253 266 288 272 253 244 241